TimeEST,TemperatureF,Dew PointF,Humidity,Sea Level PressureIn,VisibilityMPH,Wind Direction,Wind SpeedMPH,Gust SpeedMPH,PrecipitationIn,Events,Conditions,WindDirDegrees,DateUTC
12:54 AM,50.0,48.0,93,29.92,6.0,ENE,3.5,-,0.04,Rain,Rain,70,2013-02-13 05:54:00
1:54 AM,50.0,48.0,93,29.88,6.0,ENE,3.5,-,0.03,Rain,Rain,60,2013-02-13 06:54:00
2:54 AM,50.0,48.0,93,29.88,8.0,Calm,Calm,-,0.03,Rain,Light Rain,0,2013-02-13 07:54:00
3:54 AM,48.9,46.9,93,29.81,10.0,ENE,6.9,-,0.05,,Overcast,70,2013-02-13 08:54:00
4:22 AM,48.2,46.4,93,29.82,10.0,NNE,5.8,-,N/A,,Overcast,30,2013-02-13 09:22:00
4:54 AM,48.0,46.0,93,29.82,3.0,NNE,5.8,-,0.00,Rain,Light Rain,30,2013-02-13 09:54:00
5:35 AM,48.2,46.4,93,29.82,4.0,NNE,5.8,-,0.01,,Overcast,30,2013-02-13 10:35:00
5:54 AM,46.9,46.0,97,29.81,2.5,NE,4.6,-,0.01,,Overcast,40,2013-02-13 10:54:00
6:02 AM,46.4,46.4,100,29.81,2.0,ENE,3.5,-,N/A,,Overcast,60,2013-02-13 11:02:00
6:15 AM,46.4,46.4,100,29.80,2.5,NE,8.1,-,N/A,,Overcast,40,2013-02-13 11:15:00
6:26 AM,46.4,46.4,100,29.81,3.0,NE,8.1,-,N/A,,Overcast,50,2013-02-13 11:26:00
6:54 AM,46.9,46.0,97,29.79,3.0,ENE,8.1,-,0.01,,Overcast,60,2013-02-13 11:54:00
7:54 AM,46.9,46.0,97,29.79,5.0,ENE,6.9,-,N/A,,Overcast,60,2013-02-13 12:54:00
8:24 AM,48.2,46.4,93,29.80,2.0,ENE,5.8,-,N/A,,Overcast,60,2013-02-13 13:24:00
8:28 AM,48.2,46.4,93,29.81,1.5,NE,4.6,-,N/A,,Overcast,40,2013-02-13 13:28:00
8:43 AM,48.2,46.4,93,29.80,1.0,NNE,8.1,-,N/A,,Overcast,30,2013-02-13 13:43:00
8:54 AM,48.0,46.9,96,29.79,1.2,East,6.9,-,N/A,,Overcast,80,2013-02-13 13:54:00
9:06 AM,48.2,46.4,93,29.82,2.0,NNE,4.6,-,N/A,,Overcast,30,2013-02-13 14:06:00
9:23 AM,48.2,46.4,93,29.79,4.0,ENE,5.8,-,N/A,,Overcast,70,2013-02-13 14:23:00
9:31 AM,48.2,46.4,93,29.79,5.0,East,5.8,-,N/A,,Overcast,80,2013-02-13 14:31:00
9:54 AM,48.0,46.9,96,29.78,7.0,ENE,5.8,-,N/A,,Overcast,70,2013-02-13 14:54:00
10:54 AM,48.9,46.9,93,29.78,7.0,NE,4.6,-,N/A,,Overcast,50,2013-02-13 15:54:00
11:11 AM,48.2,48.2,100,29.75,3.0,East,4.6,-,N/A,,Overcast,90,2013-02-13 16:11:00
11:20 AM,48.2,48.2,100,29.74,2.0,East,3.5,-,N/A,,Overcast,90,2013-02-13 16:20:00
11:54 AM,48.9,48.0,97,29.74,2.5,Calm,Calm,-,N/A,,Overcast,0,2013-02-13 16:54:00
12:08 PM,48.2,48.2,100,29.72,1.5,ESE,3.5,-,N/A,,Overcast,110,2013-02-13 17:08:00
12:52 PM,50.0,48.2,94,29.72,2.0,Calm,Calm,-,N/A,,Overcast,0,2013-02-13 17:52:00
12:54 PM,50.0,48.9,96,29.72,2.0,Calm,Calm,-,N/A,,Overcast,0,2013-02-13 17:54:00
1:18 PM,50.0,50.0,100,29.71,1.5,Calm,Calm,-,N/A,,Overcast,0,2013-02-13 18:18:00
1:43 PM,51.8,50.0,94,29.66,1.0,Variable,3.5,-,N/A,,Overcast,0,2013-02-13 18:43:00
1:54 PM,51.1,51.1,100,29.65,1.2,Variable,4.6,-,N/A,,Overcast,0,2013-02-13 18:54:00
2:13 PM,51.8,51.8,100,29.70,2.0,SW,9.2,-,N/A,,Overcast,230,2013-02-13 19:13:00
2:28 PM,51.8,51.8,100,29.62,1.5,SSE,6.9,-,N/A,,Overcast,160,2013-02-13 19:28:00
2:52 PM,53.6,51.8,94,29.65,2.0,SW,5.8,-,N/A,,Overcast,230,2013-02-13 19:52:00
2:54 PM,53.1,52.0,96,29.67,2.0,Variable,6.9,-,N/A,,Overcast,0,2013-02-13 19:54:00
3:05 PM,53.6,53.6,100,29.66,3.0,SSW,6.9,-,N/A,,Overcast,210,2013-02-13 20:05:00
3:30 PM,55.4,53.6,94,29.66,8.0,WSW,12.7,-,N/A,,Overcast,240,2013-02-13 20:30:00
3:37 PM,55.4,53.6,94,29.67,9.0,West,15.0,23.0,N/A,,Overcast,260,2013-02-13 20:37:00
3:54 PM,55.9,53.1,90,29.67,10.0,WSW,16.1,21.9,N/A,,Overcast,250,2013-02-13 20:54:00
4:23 PM,55.4,51.8,88,29.66,10.0,West,13.8,24.2,N/A,,Overcast,260,2013-02-13 21:23:00
4:54 PM,55.0,51.1,86,29.72,5.0,West,16.1,23.0,0.01,Rain,Light Rain,270,2013-02-13 21:54:00
5:13 PM,53.6,51.8,94,29.68,6.0,West,13.8,23.0,0.04,Rain,Light Rain,260,2013-02-13 22:13:00
5:51 PM,53.6,51.8,94,29.71,10.0,WSW,10.4,20.7,0.04,,Overcast,250,2013-02-13 22:51:00
5:54 PM,53.1,51.1,93,29.68,10.0,SW,8.1,18.4,0.04,Rain,Light Rain,230,2013-02-13 22:54:00
6:54 PM,53.1,50.0,89,29.73,10.0,WSW,15.0,-,0.00,,Scattered Clouds,250,2013-02-13 23:54:00
7:54 PM,52.0,50.0,93,29.76,10.0,WSW,6.9,-,N/A,,Clear,250,2013-02-14 00:54:00
8:54 PM,51.1,48.9,92,29.78,10.0,West,4.6,-,N/A,,Clear,270,2013-02-14 01:54:00
9:54 PM,48.9,48.0,97,29.80,9.0,WSW,4.6,-,N/A,,Mostly Cloudy,250,2013-02-14 02:54:00
10:54 PM,48.9,48.0,97,29.81,9.0,West,8.1,-,N/A,,Partly Cloudy,270,2013-02-14 03:54:00
11:54 PM,48.9,46.9,93,29.84,10.0,West,6.9,-,N/A,,Partly Cloudy,280,2013-02-14 04:54:00